[[{"header":{"parameterUnit":"m.s-1","parameterCategory":1,"la1":30.2991,"la2":30.254,"lo1":-89.0895,"lo2":-89.0444,"dy":0.0017,"dx":0.0017,"nx":28,"ny":28,"refTime":"2024-06-18T09:00:00:Z","depth":0,"parameterNumber":2,"parameterNumberName":"U-component_of_WINDS"},"data":[0,0,0,0,0,0,0,0,0,0,0,0,0,0,0,0,0,0,0,0,0,0,0,0,0,0,0,0,0,0,0,0,0,0,0,0,0,0,0,0,0,0,0,0,0,0,0,0,0,0,0,0,0,0,0,0,0,0,-4.97,-4.9701,0,-4.9849,-4.9851,-4.9852,-4.9707,-4.9701,-4.9695,-4.969,-4.9847,-4.9856,-4.9866,0,0,0,0,0,0,0,0,0,0,0,0,0,-4.9291,-4.9299,-4.9699,-4.9701,-4.9703,-4.9849,-4.9851,-4.9853,-4.9708,-4.9701,-4.9694,-4.9687,-4.9844,-4.9855,-4.9867,0,0,0,0,0,0,0,0,0,0,0,0,0,-4.9457,-4.9302,-4.9699,-4.9648,-4.9645,-4.9848,-4.9851,-4.9853,-4.9709,-4.9701,-4.9692,-4.9684,-4.984,-4.9854,-4.9868,-5.013,0,0,-4.9912,-4.9918,0,0,0,0,0,0,0,0,-4.9448,-4.9473,-4.9654,-4.9652,-4.9649,-4.975,-4.9764,-4.9946,-4.9712,-4.9685,-4.969,-4.968,-4.9822,-4.9837,-4.9885,-5.0137,-5.0144,-4.9913,-4.9922,-4.9928,-4.9932,0,0,0,0,0,0,0,-4.9437,-4.9465,-4.9759,-4.9657,-4.9654,-4.9619,-4.9633,-4.9798,-4.9801,-4.9687,-4.9677,-4.9696,-4.9819,-4.9871,-4.9887,-5.0147,-4.9913,-4.9926,-4.9934,-4.994,-5.0622,-5.0631,0,0,0,0,0,0,-4.943,-4.9457,-4.9754,-4.9763,-4.9525,-4.9633,-4.9649,-4.9727,-4.9798,-4.9801,-4.9703,-4.9689,-4.9851,-4.9871,-4.9892,-5.0204,-4.9928,-4.9941,-4.995,-5.0612,-5.0624,-5.0634,0,0,0,0,0,0,-4.9422,-4.9458,-4.9748,-4.9607,-4.9641,-4.9649,-4.9738,-4.9734,-4.9786,-4.9811,-4.9811,-4.9756,-4.9845,-4.9872,-5.0072,-5.0207,-4.9948,-4.9961,-5.0601,-5.0616,-5.0629,-5.0829,0,0,0,0,0,0,-4.9411,-4.9456,-4.9555,-4.961,-4.9649,-4.9925,-4.9746,-4.9743,-4.9811,-4.9793,-4.986,-4.9863,-4.984,-5.0051,-5.0086,-5.0222,-4.9972,-5.0589,-5.0608,-5.0624,-5.081,-5.0848,-5.0881,0,0,0,0,0,-4.9397,-4.9606,-4.9561,-4.9598,-4.9773,-4.9933,-4.9955,-4.9924,-4.9822,-4.9922,-4.9938,-4.9861,-5.0186,-5.0073,-5.0111,-5.0253,-5.058,-5.0602,-5.0623,-5.0794,-5.0841,-5.088,0,0,0,0,0,0,-4.9568,-4.9613,-4.9563,-4.9796,-4.9862,-4.9908,-5.0033,-4.9974,-5.007,-5.005,-5.0008,-5.0024,-5.0236,-5.0264,-5.0137,-5.051,-5.0367,-5.0397,-5.0484,-5.0528,-5.0563,-5.0552,-4.9984,0,0,0,0,0,-4.9633,-4.9758,-4.979,-4.9993,-5.0028,-5.0026,-5.0094,-5.0064,-5.013,-5.0158,-5.0188,-5.0257,-5.0374,-5.0453,-5.0562,-5.0813,-5.0826,-5.093,-5.0965,-5.0994,-5.1021,-5.1156,-5.1202,-5.0704,-5.0704,-5.0704,0,0,-4.9768,-4.9808,-4.989,-5.0028,-5.0076,-5.0207,-5.005,-5.0195,-5.0292,-5.018,-5.037,-5.0395,-5.0469,-5.0696,-5.0797,-5.0726,-5.1161,-5.1021,-5.1044,-5.1055,-5.1183,-5.123,-5.1272,-5.0719,-5.0716,-5.0714,0,0,-5.0082,-5.0124,-5.0298,-5.0348,-5.0421,-5.0418,-5.046,-5.0515,-5.0527,-5.0717,-5.0635,-5.075,-5.0954,-5.101,-5.1065,-5.1399,-5.1332,-5.1436,-5.1621,-5.1753,-5.1792,-5.1827,-5.1946,-5.199,-5.1463,-5.1463,-5.1463,0,-5.0241,-5.0435,-5.0395,-5.0547,-5.061,-5.0513,-5.0689,-5.074,-5.0846,-5.0893,-5.0811,-5.1064,-5.1107,-5.1345,-5.1426,-5.1474,-5.1521,-5.1429,-5.1789,-5.1824,-5.1855,-5.1969,-5.2014,-5.1475,-5.1474,-5.1473,-5.1472,0,-5.0627,-5.0763,-5.0895,-5.0998,-5.1076,-5.124,-5.1225,-5.131,-5.1273,-5.1278,-5.1473,-5.1521,-5.1638,-5.1692,-5.1658,-5.1927,-5.188,-5.1795,-5.165,-5.1916,-5.2022,-5.2065,-5.1493,-5.1488,-5.1485,-5.1482,0,0,-5.1054,-5.1133,-5.1182,-5.1227,-5.1301,-5.1405,-5.1564,-5.1677,-5.1751,-5.1827,-5.196,-5.2134,-5.2055,-5.2118,-5.2089,-5.2205,-5.2467,-5.2105,-5.2106,-5.2171,-5.2766,-5.283,-5.2881,-5.2422,-5.2431,-5.2437,-5.276,0,-5.137,-5.1645,-5.1614,-5.1877,-5.2001,-5.1911,-5.2049,-5.2109,-5.2119,-5.2227,-5.2237,-5.2361,-5.2248,-5.2285,-5.2396,-5.2412,-5.2586,-5.2388,-5.2547,-5.2553,-5.2532,-5.2937,-5.3005,-5.3308,-5.2801,-5.2808,-5.2813,0,-5.1776,-5.1866,-5.2141,-5.2194,-5.2246,-5.2371,-5.2472,-5.2576,-5.2643,-5.2641,-5.2711,-5.2662,-5.2822,-5.2673,-5.2894,-5.276,-5.2823,-5.2841,-5.2852,-5.2866,-5.27,-5.2963,-5.3403,-5.3449,-5.2878,-5.2873,-5.2868,0,-5.2061,-5.225,-5.2439,-5.2481,-5.2548,-5.2638,-5.267,-5.2728,-5.2798,-5.2887,-5.2932,-5.304,-5.3099,-5.3183,-5.3164,-5.3058,-5.339,-5.324,-5.3394,-5.3395,-5.3469,-5.3465,-5.3927,-5.3509,-5.3509,-5.3508,-5.3507,0,-5.2418,-5.259,-5.2567,-5.2684,-5.2874,-5.2836,-5.3026,-5.3047,-5.3099,-5.3218,-5.3147,-5.326,-5.3228,-5.3341,-5.3327,-5.3512,-5.354,-5.3544,-5.3538,-5.3551,-5.355,-5.3592,-5.3571,-5.352,-5.3517,-5.3515,-5.3513,0,-5.2768,-5.276,-5.296,-5.3006,-5.3022,-5.316,-5.3201,-5.3311,-5.3313,-5.3466,-5.3499,-5.3505,-5.3634,-5.3623,-5.3768,-5.3759,-5.3988,-5.3957,-5.3966,-5.3959,-5.4114,-5.41,-5.462,-5.4686,-5.4225,-5.423,-5.4233,0,-5.2996,-5.3126,-5.3187,-5.3261,-5.3299,-5.342,-5.3491,-5.3459,-5.3536,-5.3622,-5.3722,-5.3844,-5.3939,-5.415,-5.4168,-5.4278,-5.425,-5.4424,-5.4266,-5.4275,-5.4253,-5.4246,-5.4259,-5.4456,-5.4461,-5.4465,-5.4469,0,-5.3403,-5.3392,-5.3497,-5.3601,-5.3687,-5.3768,-5.3841,-5.3906,-5.3882,-5.3972,-5.4102,-5.4177,-5.4324,-5.4447,-5.4552,-5.4585,-5.4525,-5.4518,-5.456,-5.4575,-5.4574,-5.4577,-5.4051,-5.4507,-5.4503,-5.45,-5.4498,-5.4497,-5.37,-5.3811,-5.3871,-5.399,-5.4041,-5.4111,-5.4216,-5.4232,-5.434,-5.4457,-5.4432,-5.4579,-5.4642,-5.4776,-5.4821,-5.4935,-5.4873,-5.4933,-5.4949,-5.4964,-5.4982,-5.4555,-5.4954,-5.4953,-5.4952,-5.4951,-5.4951,0,-5.4103,-5.4137,-5.4247,-5.435,-5.4444,-5.4377,-5.4454,-5.4537,-5.4667,-5.4731,-5.4826,-5.4976,-5.5094,-5.5121,-5.5234,-5.5321,-5.5296,-5.5352,-5.5345,-5.5354,-5.5032,-5.4984,-5.537,-5.537,-5.537,-5.537,-5.537,-5.537,-5.4324,-5.4509,-5.4505,-5.4715,-5.4747,-5.489,-5.494,-5.5004,-5.5054,-5.5225,-5.5322,-5.5338,-5.5387,-5.5503,-5.5609,-5.5613,-5.5659,-5.5727,-5.5721,-5.5419,-5.5377,-5.5337,-5.5292,-5.5737,-5.5737,-5.6033,-5.6036,-5.6038]},{"header":{"parameterUnit":"m.s-1","parameterCategory":1,"la1":30.2991,"la2":30.254,"lo1":-89.0895,"lo2":-89.0444,"dy":0.0017,"dx":0.0017,"nx":28,"ny":28,"refTime":"2024-06-18T09:00:00:Z","depth":0,"parameterNumber":3,"parameterNumberName":"V-component_of_WINDS"},"data":[0,0,0,0,0,0,0,0,0,0,0,0,0,0,0,0,0,0,0,0,0,0,0,0,0,0,0,0,0,0,0,0,0,0,0,0,0,0,0,0,0,0,0,0,0,0,0,0,0,0,0,0,0,0,0,0,0,0,-1.7491,-1.749,0,-1.7324,-1.7322,-1.732,-1.7295,-1.7297,-1.7298,-1.73,-1.7115,-1.7109,-1.7103,0,0,0,0,0,0,0,0,0,0,0,0,0,-1.7773,-1.7768,-1.7492,-1.7489,-1.7487,-1.7325,-1.7322,-1.732,-1.7295,-1.7297,-1.7299,-1.7301,-1.7117,-1.711,-1.7102,0,0,0,0,0,0,0,0,0,0,0,0,0,-1.7632,-1.7766,-1.7492,-1.7456,-1.7451,-1.7325,-1.7322,-1.7319,-1.7295,-1.7297,-1.7299,-1.7302,-1.712,-1.711,-1.7101,-1.6996,0,0,-1.7072,-1.7068,0,0,0,0,0,0,0,0,-1.764,-1.7622,-1.7463,-1.7458,-1.7452,-1.7333,-1.7354,-1.721,-1.7294,-1.7354,-1.73,-1.7303,-1.7185,-1.717,-1.7133,-1.6987,-1.6979,-1.7071,-1.7065,-1.7061,-1.7058,0,0,0,0,0,0,0,-1.765,-1.7629,-1.7425,-1.7461,-1.7454,-1.7442,-1.7425,-1.7326,-1.7258,-1.7349,-1.7346,-1.7328,-1.7182,-1.7143,-1.7129,-1.6976,-1.7071,-1.7063,-1.7057,-1.7053,-1.6726,-1.6723,0,0,0,0,0,0,-1.7668,-1.7637,-1.743,-1.742,-1.7554,-1.7435,-1.7416,-1.7369,-1.7259,-1.7245,-1.7326,-1.7327,-1.7158,-1.714,-1.7122,-1.6986,-1.7061,-1.7052,-1.7047,-1.6729,-1.6725,-1.6722,0,0,0,0,0,0,-1.7674,-1.765,-1.7437,-1.7528,-1.75,-1.7428,-1.7375,-1.7364,-1.7325,-1.7242,-1.7228,-1.7299,-1.7159,-1.7136,-1.7026,-1.698,-1.7048,-1.7039,-1.6732,-1.6728,-1.6724,-1.6717,0,0,0,0,0,0,-1.7683,-1.7653,-1.7616,-1.7527,-1.7495,-1.7349,-1.7373,-1.7359,-1.731,-1.731,-1.7213,-1.7199,-1.7159,-1.7041,-1.7017,-1.6968,-1.7032,-1.6736,-1.673,-1.6725,-1.6721,-1.6713,-1.6706,0,0,0,0,0,-1.7693,-1.762,-1.7615,-1.759,-1.7449,-1.7347,-1.7328,-1.7287,-1.7307,-1.7266,-1.7211,-1.7202,-1.6989,-1.703,-1.7003,-1.695,-1.6739,-1.6732,-1.6726,-1.6724,-1.6714,-1.6706,0,0,0,0,0,0,-1.7702,-1.7608,-1.7601,-1.7498,-1.7431,-1.7343,-1.7291,-1.7279,-1.7202,-1.7205,-1.7153,-1.7131,-1.7023,-1.6975,-1.7023,-1.6838,-1.6865,-1.6852,-1.6873,-1.6863,-1.6856,-1.6868,-1.7024,0,0,0,0,0,-1.7692,-1.7622,-1.7542,-1.7458,-1.7425,-1.7364,-1.7318,-1.7292,-1.7219,-1.7189,-1.7127,-1.7052,-1.6967,-1.6913,-1.6831,-1.6714,-1.6688,-1.6664,-1.6656,-1.6651,-1.6639,-1.6566,-1.6553,-1.67,-1.67,-1.67,0,0,-1.7671,-1.7611,-1.7569,-1.7458,-1.7404,-1.7326,-1.734,-1.7259,-1.7199,-1.7175,-1.7069,-1.702,-1.6932,-1.6817,-1.6763,-1.6774,-1.6593,-1.6642,-1.6638,-1.663,-1.6558,-1.6544,-1.6532,-1.6696,-1.6697,-1.6697,0,0,-1.7592,-1.7542,-1.7465,-1.7409,-1.7326,-1.7285,-1.7266,-1.7179,-1.7147,-1.7039,-1.7018,-1.6943,-1.6801,-1.6737,-1.6686,-1.6577,-1.6562,-1.6551,-1.6511,-1.644,-1.6429,-1.6418,-1.6373,-1.6358,-1.6541,-1.6541,-1.6541,0,-1.7574,-1.7463,-1.7425,-1.7344,-1.7292,-1.727,-1.7187,-1.7133,-1.7026,-1.6988,-1.7003,-1.682,-1.676,-1.6626,-1.6599,-1.6561,-1.6531,-1.6561,-1.6434,-1.6423,-1.6412,-1.6369,-1.6353,-1.654,-1.654,-1.654,-1.654,0,-1.7442,-1.7363,-1.731,-1.721,-1.7152,-1.7071,-1.7014,-1.696,-1.6937,-1.6893,-1.6779,-1.6705,-1.6605,-1.6572,-1.6549,-1.6432,-1.6441,-1.6446,-1.6471,-1.6398,-1.6356,-1.6339,-1.6538,-1.6538,-1.6539,-1.6539,0,0,-1.7365,-1.7244,-1.7224,-1.7176,-1.7081,-1.7016,-1.693,-1.6836,-1.6786,-1.6712,-1.6633,-1.6511,-1.6513,-1.6455,-1.6424,-1.6363,-1.6273,-1.6373,-1.637,-1.6353,-1.6132,-1.6127,-1.6109,-1.6264,-1.6261,-1.6258,-1.6138,0,-1.7272,-1.7123,-1.7084,-1.6954,-1.6877,-1.6852,-1.6775,-1.6705,-1.6659,-1.6582,-1.653,-1.6442,-1.6455,-1.6418,-1.6357,-1.6297,-1.6227,-1.6306,-1.6183,-1.618,-1.6204,-1.6088,-1.6083,-1.5974,-1.6122,-1.6119,-1.6117,0,-1.7144,-1.7069,-1.6933,-1.6842,-1.6808,-1.6741,-1.6647,-1.6577,-1.6493,-1.6463,-1.6397,-1.637,-1.6271,-1.6303,-1.6162,-1.6217,-1.6163,-1.6125,-1.612,-1.6104,-1.6142,-1.6064,-1.5938,-1.592,-1.6092,-1.6094,-1.6096,0,-1.7096,-1.696,-1.686,-1.6819,-1.6713,-1.6665,-1.6617,-1.6537,-1.648,-1.6397,-1.6358,-1.6263,-1.621,-1.6133,-1.6078,-1.6108,-1.5939,-1.5969,-1.5906,-1.5907,-1.587,-1.5872,-1.5729,-1.5842,-1.5843,-1.5843,-1.5843,0,-1.6994,-1.691,-1.6836,-1.6774,-1.6676,-1.6629,-1.6532,-1.6482,-1.6409,-1.6332,-1.6303,-1.623,-1.6164,-1.6079,-1.6035,-1.5921,-1.5898,-1.5866,-1.5855,-1.5867,-1.587,-1.5829,-1.5834,-1.5838,-1.5839,-1.584,-1.5841,0,-1.6923,-1.6872,-1.6759,-1.6667,-1.6641,-1.6573,-1.6491,-1.6425,-1.6378,-1.6279,-1.6253,-1.6176,-1.6074,-1.6013,-1.5884,-1.5853,-1.5726,-1.5719,-1.5755,-1.5749,-1.5688,-1.5693,-1.551,-1.5481,-1.5618,-1.5617,-1.5616,0,-1.6861,-1.6795,-1.6696,-1.6644,-1.6596,-1.6513,-1.6455,-1.6403,-1.6343,-1.624,-1.6185,-1.6082,-1.5997,-1.5834,-1.5763,-1.5662,-1.565,-1.5593,-1.5634,-1.5646,-1.5642,-1.5645,-1.5635,-1.5585,-1.5583,-1.5583,-1.5582,0,-1.6752,-1.6728,-1.6649,-1.6559,-1.6491,-1.6416,-1.6341,-1.6299,-1.6233,-1.6165,-1.6063,-1.5997,-1.5865,-1.576,-1.5652,-1.5595,-1.5574,-1.5569,-1.5548,-1.5558,-1.558,-1.5562,-1.5732,-1.5573,-1.5574,-1.5575,-1.5575,-1.5576,-1.668,-1.6619,-1.6538,-1.6448,-1.6387,-1.6316,-1.6249,-1.6192,-1.6108,-1.5998,-1.5971,-1.5862,-1.5772,-1.5625,-1.5566,-1.5474,-1.5482,-1.5454,-1.5446,-1.5438,-1.5434,-1.5598,-1.5455,-1.5455,-1.5455,-1.5455,-1.5455,0,-1.6566,-1.6512,-1.643,-1.6327,-1.6254,-1.6246,-1.616,-1.6098,-1.6004,-1.5924,-1.5841,-1.5719,-1.5616,-1.5536,-1.5428,-1.537,-1.5357,-1.5342,-1.5344,-1.533,-1.5436,-1.5462,-1.5354,-1.5354,-1.5354,-1.5354,-1.5354,-1.5355,-1.6498,-1.6392,-1.6358,-1.6218,-1.6163,-1.6058,-1.6009,-1.5941,-1.5877,-1.5743,-1.5659,-1.5609,-1.5525,-1.5411,-1.5313,-1.5292,-1.5251,-1.5237,-1.5213,-1.5313,-1.5323,-1.5334,-1.5358,-1.523,-1.523,-1.5114,-1.5113,-1.5112]}]]